Total_Precipitation_Accumulation
3.51 3.53 3.48 3.64 3.55 3.72 4.15 4.73 4.58 4.72 4.59 4.14 3.63 3.53 3.67 3.57 3.47 3.34 2.90 2.75 2.95 3.06 3.23 3.34 3.36 3.36 3.38 3.26 3.02 2.82 2.61 2.41 2.13 1.85 1.60 1.54 1.67 1.70 1.62 1.51 1.44 1.38 1.29
3.25 3.24 3.26 3.57 3.55 3.44 3.60 4.07 4.22 4.66 4.61 4.20 3.57 3.28 3.35 3.47 3.31 3.16 2.96 2.88 2.94 2.79 2.92 3.38 3.76 3.96 3.88 3.71 3.52 3.25 2.93 2.71 2.43 2.03 1.78 1.64 1.50 1.52 1.60 1.54 1.48 1.43 1.29
2.98 2.98 3.10 3.13 3.16 3.07 3.22 3.43 3.65 3.94 3.85 3.66 3.57 3.32 3.22 3.16 2.92 2.96 3.01 2.87 2.55 2.73 2.90 3.17 3.52 3.81 4.06 4.26 4.18 3.90 3.54 3.08 2.65 2.28 1.98 1.73 1.52 1.38 1.36 1.40 1.44 1.40 1.24
2.50 2.67 2.68 2.63 2.67 2.54 2.70 3.14 3.18 3.40 3.60 3.58 3.75 3.47 3.17 3.24 2.98 2.91 2.91 2.96 2.95 2.59 2.95 3.12 3.29 3.47 3.86 4.27 4.52 4.61 4.19 3.54 2.96 2.58 2.22 1.89 1.67 1.46 1.29 1.24 1.31 1.35 1.23
2.46 2.63 2.76 2.75 2.36 2.37 2.52 2.33 2.82 3.09 3.28 3.29 2.86 2.98 2.70 2.77 2.74 2.45 2.56 2.52 2.78 2.82 3.01 2.97 3.19 3.21 3.56 4.40 5.02 5.28 5.11 4.36 3.58 3.11 2.81 2.42 2.14 1.82 1.54 1.37 1.28 1.25 1.16
2.40 2.74 2.58 2.39 2.16 2.53 2.83 2.89 3.25 3.18 3.00 3.01 2.49 2.59 2.40 2.26 2.34 2.26 2.16 2.26 2.38 2.33 2.71 2.91 3.02 2.70 3.05 3.95 4.70 5.09 5.40 5.31 4.59 3.87 3.50 3.21 2.96 2.50 1.98 1.65 1.47 1.39 1.30
2.45 2.86 2.59 2.91 2.58 2.65 2.81 2.83 3.06 3.02 2.71 2.67 3.08 3.08 2.49 2.03 2.08 1.97 1.94 2.16 2.14 2.25 2.67 2.98 3.15 3.12 2.91 2.79 3.04 3.74 4.64 5.39 5.48 4.83 4.25 3.91 3.68 3.10 2.38 2.05 1.87 1.69 1.59
2.42 2.49 2.89 2.66 2.72 2.90 2.88 2.94 3.11 3.11 2.82 2.80 3.25 3.59 3.17 3.05 2.64 1.84 1.91 2.08 2.13 2.35 2.41 2.43 2.75 3.20 3.09 3.17 2.46 2.34 3.29 4.16 5.13 5.30 4.82 4.29 4.01 3.49 2.81 2.43 2.14 1.92 1.80
2.14 2.33 2.51 2.53 2.79 2.59 2.94 3.16 3.13 3.25 3.29 3.10 3.14 3.60 3.61 3.48 2.92 2.31 1.87 1.87 2.13 2.51 2.49 2.53 2.39 2.75 3.06 3.39 3.25 2.61 2.60 2.79 3.76 4.89 5.20 4.65 3.97 3.48 3.12 2.95 2.69 2.31 2.09
2.14 2.21 2.32 2.64 2.85 2.59 3.15 2.73 2.85 3.13 3.33 3.15 3.11 2.97 3.11 3.36 3.39 3.09 2.50 1.98 2.00 2.29 2.46 2.29 2.31 2.71 3.03 3.13 3.21 2.55 2.15 2.06 2.68 3.83 4.67 4.78 4.29 3.65 3.23 3.20 3.39 3.26 2.84
2.14 2.03 2.30 2.59 2.73 2.63 2.81 2.87 3.16 3.01 2.98 2.99 3.07 3.14 3.30 3.26 2.98 3.10 3.05 2.70 2.37 1.89 1.78 1.97 2.27 2.46 2.70 3.05 3.37 2.73 2.19 2.05 2.13 2.54 3.15 3.78 4.02 3.82 3.55 3.61 4.02 4.27 3.98
2.19 2.10 2.31 2.61 2.57 2.64 2.83 2.79 2.96 2.95 3.02 3.10 2.93 2.85 3.12 3.12 3.01 3.10 2.80 2.59 2.50 1.86 1.58 1.63 1.85 2.26 2.48 2.77 2.86 2.43 2.30 2.48 2.39 2.34 2.33 2.54 2.99 3.30 3.46 3.68 4.06 4.54 4.74
2.17 2.25 2.41 2.70 2.60 2.67 2.76 3.02 3.11 3.04 3.02 3.03 2.86 2.71 2.69 2.59 2.72 2.92 3.06 2.66 2.39 1.88 1.89 1.69 1.79 2.07 2.17 2.67 3.04 2.93 2.50 2.60 2.42 2.34 2.32 2.24 2.38 2.61 2.79 3.06 3.44 3.89 4.33
2.18 2.12 2.30 2.36 2.35 2.43 2.50 3.04 2.87 2.84 2.96 2.88 2.60 2.89 2.75 2.37 2.48 2.69 3.04 3.28 2.95 2.50 2.47 2.25 2.07 2.18 2.34 2.71 3.02 3.10 2.56 2.50 2.22 2.07 2.01 1.95 1.95 2.03 2.17 2.33 2.50 2.67 2.93
2.17 2.14 2.14 2.23 2.30 2.46 2.63 2.83 2.72 2.81 3.03 2.88 2.78 2.94 2.70 2.42 2.39 2.37 2.75 3.22 3.57 3.31 2.87 2.58 2.39 2.31 2.41 2.60 2.90 2.65 2.71 2.70 2.37 2.08 1.84 1.77 1.75 1.70 1.71 1.79 1.94 2.00 2.04
2.00 2.07 2.17 2.19 2.28 2.40 2.66 2.85 2.81 2.91 3.00 2.86 2.88 2.96 2.81 2.54 2.62 2.48 2.57 2.95 3.27 3.46 3.10 2.35 2.34 2.25 2.39 2.33 2.74 2.53 2.72 2.73 2.33 2.07 1.84 1.73 1.65 1.60 1.57 1.60 1.66 1.75 1.83
2.10 2.09 2.18 2.24 2.26 2.27 2.48 2.69 2.58 2.83 2.98 3.02 2.81 2.79 2.76 2.82 2.86 2.71 2.82 2.90 3.00 3.38 3.38 2.67 2.50 2.56 2.68 2.70 2.76 2.61 2.48 2.49 2.28 2.20 1.92 1.74 1.63 1.56 1.53 1.49 1.50 1.50 1.55
2.23 2.23 2.31 2.40 2.33 2.33 2.51 2.52 2.36 2.47 2.69 2.92 3.14 3.28 3.04 3.08 3.11 2.98 2.99 2.96 3.03 3.32 3.36 3.10 2.84 2.79 2.86 2.81 2.82 2.64 2.23 2.11 2.21 2.38 2.12 1.85 1.68 1.57 1.51 1.45 1.42 1.38 1.40
2.48 2.49 2.57 2.51 2.52 2.57 2.56 2.45 2.46 2.51 2.58 2.65 2.92 3.21 3.24 3.46 3.18 3.19 3.13 3.01 3.03 3.06 3.27 3.08 2.84 2.99 2.98 2.93 2.87 2.49 2.30 2.38 2.17 2.46 2.40 2.01 1.76 1.65 1.52 1.42 1.32 1.27 1.26
2.71 2.70 2.71 2.64 2.59 2.64 2.67 2.65 2.64 2.59 2.62 2.57 2.65 2.80 2.95 3.25 3.23 3.34 3.17 3.16 3.28 3.36 3.48 3.32 3.10 3.17 3.28 3.28 3.17 2.79 2.64 2.54 2.38 2.17 2.30 2.09 1.93 1.82 1.68 1.54 1.44 1.32 1.30
2.75 2.93 2.92 2.83 2.83 2.81 2.59 2.75 2.98 2.93 2.97 2.72 2.62 2.60 2.60 2.87 2.97 3.06 2.78 2.97 3.32 3.39 3.45 3.37 3.23 3.24 3.23 3.39 3.12 2.95 2.82 2.81 2.70 2.39 2.28 2.00 1.91 1.75 1.71 1.73 1.65 1.52 1.43
3.20 3.15 3.04 3.08 3.03 2.74 2.87 2.96 2.89 2.93 3.12 3.07 2.90 2.84 2.70 2.63 2.65 2.70 2.72 2.82 2.99 3.00 3.07 3.21 3.13 3.10 3.12 3.27 3.46 3.34 3.17 3.03 2.77 2.45 2.51 2.17 2.01 1.91 1.74 1.61 1.76 1.72 1.56
3.27 3.17 3.14 3.18 3.07 3.08 3.04 2.81 2.69 2.70 2.80 2.89 2.93 2.89 2.55 2.38 2.64 2.54 2.69 2.72 2.53 2.48 2.51 2.68 2.69 2.69 3.16 3.49 3.85 3.50 3.33 3.15 2.86 2.69 2.74 2.35 2.13 2.04 1.84 1.77 1.93 1.70 1.51
3.27 3.23 3.17 3.06 2.98 2.87 2.93 2.68 2.68 2.56 2.51 2.48 2.62 2.73 2.66 2.52 2.55 2.70 2.60 2.32 2.09 2.08 2.15 2.07 2.06 2.32 2.80 3.43 3.79 3.76 3.78 3.53 3.16 2.75 2.63 2.36 2.13 2.00 1.81 1.81 2.03 1.91 1.71
3.17 3.02 2.91 2.90 2.87 2.92 3.16 2.85 2.72 2.49 2.47 2.33 2.37 2.39 2.40 2.25 2.42 2.58 2.44 2.18 1.98 1.87 1.93 1.96 1.92 2.14 2.43 2.81 3.26 3.51 3.44 3.31 2.88 2.47 2.39 2.29 2.11 2.14 2.06 1.94 1.92 2.08 1.90
3.43 3.40 3.26 3.20 3.12 3.07 3.30 3.01 2.81 2.52 2.48 2.42 2.47 2.45 2.51 2.25 2.20 2.16 2.03 2.03 1.84 1.73 1.89 1.87 1.81 1.84 1.96 2.28 2.78 2.87 2.96 3.10 2.82 2.48 2.20 2.26 2.15 2.35 2.29 2.01 1.90 1.89 1.82